Today
| Time | Wind Dr | Wind Spd mph |
Wind Gust mph |
Hum In % |
Humid % |
TempI F |
Temp F |
Raw Bar in |
Tot Rain in |
UV | Solar W/sqm |
DailyRain in |
HourRain in |
24HrRain in |
RainRate in |
|---|---|---|---|---|---|---|---|---|---|---|---|---|---|---|---|
| 09/06/26 12:01:35 AM | 29 | 0.0 | 0.0 | 36 | 37 | 74.8 | 73.2 | 29.911 | 7.41 | 0.0 | 0 | 0.00 | 0.00 | 0.00 | 0.00 |
| 09/06/26 12:02:27 AM | 32 | 0.0 | 0.0 | 36 | 37 | 74.8 | 73.2 | 29.909 | 7.41 | 0.0 | 0 | 0.00 | 0.00 | 0.00 | 0.00 |
| 09/06/26 12:03:36 AM | 31 | 0.0 | 0.0 | 36 | 36 | 74.8 | 73.1 | 29.910 | 7.41 | 0.0 | 0 | 0.00 | 0.00 | 0.00 | 0.00 |
| 09/06/26 12:04:25 AM | 31 | 0.0 | 0.0 | 36 | 36 | 74.8 | 73.1 | 29.912 | 7.41 | 0.0 | 0 | 0.00 | 0.00 | 0.00 | 0.00 |
| 09/06/26 12:05:20 AM | 25 | 0.0 | 0.0 | 36 | 36 | 74.7 | 73.1 | 29.912 | 7.41 | 0.0 | 0 | 0.00 | 0.00 | 0.00 | 0.00 |
| 09/06/26 12:06:29 AM | 32 | 0.0 | 0.0 | 36 | 36 | 74.7 | 73.1 | 29.911 | 7.41 | 0.0 | 0 | 0.00 | 0.00 | 0.00 | 0.00 |
| 09/06/26 12:07:21 AM | 28 | 0.0 | 0.0 | 36 | 36 | 74.8 | 73.0 | 29.910 | 7.41 | 0.0 | 0 | 0.00 | 0.00 | 0.00 | 0.00 |
| 09/06/26 12:08:30 AM | 31 | 0.0 | 0.0 | 36 | 37 | 74.7 | 73.0 | 29.912 | 7.41 | 0.0 | 0 | 0.00 | 0.00 | 0.00 | 0.00 |
| 09/06/26 12:09:22 AM | 32 | 0.0 | 0.0 | 36 | 37 | 74.7 | 73.0 | 29.910 | 7.41 | 0.0 | 0 | 0.00 | 0.00 | 0.00 | 0.00 |
| 09/06/26 12:10:35 AM | 31 | 0.0 | 0.0 | 36 | 37 | 74.7 | 73.0 | 29.910 | 7.41 | 0.0 | 0 | 0.00 | 0.00 | 0.00 | 0.00 |
| 09/06/26 12:11:26 AM | 26 | 0.0 | 0.0 | 37 | 37 | 74.7 | 73.0 | 29.911 | 7.41 | 0.0 | 0 | 0.00 | 0.00 | 0.00 | 0.00 |
| 09/06/26 12:12:18 AM | 30 | 0.0 | 0.0 | 37 | 36 | 74.7 | 72.9 | 29.912 | 7.41 | 0.0 | 0 | 0.00 | 0.00 | 0.00 | 0.00 |
| 09/06/26 12:13:31 AM | 32 | 0.0 | 0.0 | 37 | 37 | 74.7 | 72.9 | 29.911 | 7.41 | 0.0 | 0 | 0.00 | 0.00 | 0.00 | 0.00 |
| 09/06/26 12:14:19 AM | 28 | 0.0 | 0.0 | 37 | 37 | 74.7 | 72.9 | 29.911 | 7.41 | 0.0 | 0 | 0.00 | 0.00 | 0.00 | 0.00 |
| 09/06/26 12:15:32 AM | 34 | 0.0 | 0.0 | 37 | 37 | 74.7 | 72.9 | 29.911 | 7.41 | 0.0 | 0 | 0.00 | 0.00 | 0.00 | 0.00 |
| 09/06/26 12:16:23 AM | 29 | 0.0 | 0.0 | 37 | 37 | 74.7 | 72.8 | 29.913 | 7.41 | 0.0 | 0 | 0.00 | 0.00 | 0.00 | 0.00 |
| 09/06/26 12:17:36 AM | 32 | 0.0 | 0.0 | 37 | 37 | 74.7 | 72.8 | 29.911 | 7.41 | 0.0 | 0 | 0.00 | 0.00 | 0.00 | 0.00 |
| 09/06/26 12:18:28 AM | 32 | 0.0 | 0.0 | 37 | 36 | 74.7 | 72.7 | 29.913 | 7.41 | 0.0 | 0 | 0.00 | 0.00 | 0.00 | 0.00 |
| 09/06/26 12:19:34 AM | 30 | 0.0 | 0.0 | 37 | 37 | 74.7 | 72.7 | 29.912 | 7.41 | 0.0 | 0 | 0.00 | 0.00 | 0.00 | 0.00 |
| 09/06/26 12:20:26 AM | 31 | 0.0 | 0.0 | 37 | 37 | 74.7 | 72.7 | 29.911 | 7.41 | 0.0 | 0 | 0.00 | 0.00 | 0.00 | 0.00 |
| 09/06/26 12:21:17 AM | 32 | 0.0 | 0.0 | 37 | 37 | 74.6 | 72.7 | 29.913 | 7.41 | 0.0 | 0 | 0.00 | 0.00 | 0.00 | 0.00 |
| 09/06/26 12:22:30 AM | 31 | 0.0 | 0.0 | 37 | 37 | 74.7 | 72.6 | 29.914 | 7.41 | 0.0 | 0 | 0.00 | 0.00 | 0.00 | 0.00 |
| 09/06/26 12:23:22 AM | 30 | 0.0 | 0.0 | 37 | 36 | 74.7 | 72.6 | 29.914 | 7.41 | 0.0 | 0 | 0.00 | 0.00 | 0.00 | 0.00 |
| 09/06/26 12:24:31 AM | 32 | 0.0 | 0.0 | 37 | 36 | 74.6 | 72.6 | 29.913 | 7.41 | 0.0 | 0 | 0.00 | 0.00 | 0.00 | 0.00 |
| 09/06/26 12:25:26 AM | 28 | 0.0 | 0.0 | 37 | 36 | 74.7 | 72.6 | 29.911 | 7.41 | 0.0 | 0 | 0.00 | 0.00 | 0.00 | 0.00 |
| 09/06/26 12:26:36 AM | 30 | 0.0 | 0.0 | 37 | 37 | 74.6 | 72.6 | 29.913 | 7.41 | 0.0 | 0 | 0.00 | 0.00 | 0.00 | 0.00 |
| 09/06/26 12:27:27 AM | 34 | 0.0 | 0.0 | 37 | 37 | 74.6 | 72.6 | 29.914 | 7.41 | 0.0 | 0 | 0.00 | 0.00 | 0.00 | 0.00 |
| 09/06/26 12:28:19 AM | 30 | 0.0 | 0.0 | 37 | 37 | 74.6 | 72.6 | 29.914 | 7.41 | 0.0 | 0 | 0.00 | 0.00 | 0.00 | 0.00 |
| 09/06/26 12:29:31 AM | 32 | 0.0 | 0.0 | 37 | 37 | 74.6 | 72.5 | 29.913 | 7.41 | 0.0 | 0 | 0.00 | 0.00 | 0.00 | 0.00 |
| 09/06/26 12:30:20 AM | 31 | 0.0 | 0.0 | 37 | 37 | 74.6 | 72.5 | 29.913 | 7.41 | 0.0 | 0 | 0.00 | 0.00 | 0.00 | 0.00 |
| 09/06/26 12:31:30 AM | 32 | 0.0 | 0.0 | 37 | 37 | 74.6 | 72.5 | 29.916 | 7.41 | 0.0 | 0 | 0.00 | 0.00 | 0.00 | 0.00 |
| 09/06/26 12:32:24 AM | 31 | 0.0 | 0.0 | 37 | 37 | 74.6 | 72.5 | 29.915 | 7.41 | 0.0 | 0 | 0.00 | 0.00 | 0.00 | 0.00 |
| 09/06/26 12:33:37 AM | 29 | 0.0 | 0.0 | 37 | 38 | 74.6 | 72.5 | 29.915 | 7.41 | 0.0 | 0 | 0.00 | 0.00 | 0.00 | 0.00 |
| 09/06/26 12:34:28 AM | 26 | 0.0 | 0.0 | 37 | 38 | 74.6 | 72.5 | 29.916 | 7.41 | 0.0 | 0 | 0.00 | 0.00 | 0.00 | 0.00 |
| 09/06/26 12:35:35 AM | 30 | 0.0 | 0.0 | 37 | 38 | 74.6 | 72.5 | 29.914 | 7.41 | 0.0 | 0 | 0.00 | 0.00 | 0.00 | 0.00 |
| 09/06/26 12:36:27 AM | 32 | 0.0 | 0.0 | 37 | 37 | 74.6 | 72.5 | 29.914 | 7.41 | 0.0 | 0 | 0.00 | 0.00 | 0.00 | 0.00 |
| 09/06/26 12:37:21 AM | 29 | 0.0 | 0.0 | 37 | 37 | 74.6 | 72.5 | 29.914 | 7.41 | 0.0 | 0 | 0.00 | 0.00 | 0.00 | 0.00 |
| 09/06/26 12:38:34 AM | 26 | 0.0 | 0.0 | 37 | 38 | 74.6 | 72.4 | 29.917 | 7.41 | 0.0 | 0 | 0.00 | 0.00 | 0.00 | 0.00 |
| 09/06/26 12:39:26 AM | 34 | 0.0 | 0.0 | 37 | 38 | 74.6 | 72.5 | 29.913 | 7.41 | 0.0 | 0 | 0.00 | 0.00 | 0.00 | 0.00 |
| 09/06/26 12:40:17 AM | 29 | 0.0 | 0.0 | 37 | 38 | 74.6 | 72.4 | 29.917 | 7.41 | 0.0 | 0 | 0.00 | 0.00 | 0.00 | 0.00 |
| 09/06/26 12:41:24 AM | 26 | 0.0 | 0.0 | 37 | 38 | 74.6 | 72.4 | 29.917 | 7.41 | 0.0 | 0 | 0.00 | 0.00 | 0.00 | 0.00 |
| 09/06/26 12:42:16 AM | 32 | 0.0 | 0.0 | 37 | 38 | 74.6 | 72.4 | 29.915 | 7.41 | 0.0 | 0 | 0.00 | 0.00 | 0.00 | 0.00 |
| 09/06/26 12:43:28 AM | 30 | 0.0 | 0.0 | 37 | 38 | 74.6 | 72.3 | 29.917 | 7.41 | 0.0 | 0 | 0.00 | 0.00 | 0.00 | 0.00 |
| 09/06/26 12:44:20 AM | 31 | 0.0 | 0.0 | 37 | 38 | 74.6 | 72.3 | 29.916 | 7.41 | 0.0 | 0 | 0.00 | 0.00 | 0.00 | 0.00 |
| 09/06/26 12:45:36 AM | 31 | 0.0 | 0.0 | 37 | 38 | 74.6 | 72.2 | 29.918 | 7.41 | 0.0 | 0 | 0.00 | 0.00 | 0.00 | 0.00 |
| 09/06/26 12:46:21 AM | 31 | 0.0 | 0.0 | 37 | 38 | 74.6 | 72.2 | 29.917 | 7.41 | 0.0 | 0 | 0.00 | 0.00 | 0.00 | 0.00 |
| 09/06/26 12:47:34 AM | 28 | 0.0 | 0.0 | 37 | 38 | 74.6 | 72.2 | 29.917 | 7.41 | 0.0 | 0 | 0.00 | 0.00 | 0.00 | 0.00 |
| 09/06/26 12:48:28 AM | 31 | 0.0 | 0.0 | 37 | 38 | 74.6 | 72.1 | 29.917 | 7.41 | 0.0 | 0 | 0.00 | 0.00 | 0.00 | 0.00 |
| 09/06/26 12:49:17 AM | 30 | 0.0 | 0.0 | 37 | 38 | 74.6 | 72.1 | 29.918 | 7.41 | 0.0 | 0 | 0.00 | 0.00 | 0.00 | 0.00 |
| 09/06/26 12:50:30 AM | 30 | 0.0 | 0.0 | 37 | 38 | 74.6 | 72.1 | 29.920 | 7.41 | 0.0 | 0 | 0.00 | 0.00 | 0.00 | 0.00 |
| 09/06/26 12:51:21 AM | 28 | 0.0 | 0.0 | 37 | 38 | 74.6 | 72.1 | 29.917 | 7.41 | 0.0 | 0 | 0.00 | 0.00 | 0.00 | 0.00 |
| 09/06/26 12:52:34 AM | 31 | 0.0 | 0.0 | 37 | 38 | 74.5 | 72.1 | 29.920 | 7.41 | 0.0 | 0 | 0.00 | 0.00 | 0.00 | 0.00 |
| 09/06/26 12:53:23 AM | 26 | 0.0 | 0.0 | 37 | 38 | 74.6 | 72.0 | 29.920 | 7.41 | 0.0 | 0 | 0.00 | 0.00 | 0.00 | 0.00 |
| 09/06/26 12:54:35 AM | 30 | 0.0 | 0.0 | 37 | 38 | 74.6 | 72.0 | 29.921 | 7.41 | 0.0 | 0 | 0.00 | 0.00 | 0.00 | 0.00 |
| 09/06/26 12:55:27 AM | 32 | 0.0 | 0.0 | 37 | 38 | 74.5 | 72.0 | 29.918 | 7.41 | 0.0 | 0 | 0.00 | 0.00 | 0.00 | 0.00 |
| 09/06/26 12:56:19 AM | 29 | 0.0 | 0.0 | 37 | 38 | 74.5 | 72.0 | 29.916 | 7.41 | 0.0 | 0 | 0.00 | 0.00 | 0.00 | 0.00 |
| 09/06/26 12:57:28 AM | 30 | 0.0 | 0.0 | 37 | 38 | 74.6 | 72.0 | 29.917 | 7.41 | 0.0 | 0 | 0.00 | 0.00 | 0.00 | 0.00 |
| 09/06/26 12:58:20 AM | 30 | 0.0 | 0.0 | 37 | 38 | 74.5 | 72.0 | 29.916 | 7.41 | 0.0 | 0 | 0.00 | 0.00 | 0.00 | 0.00 |
| 09/06/26 12:59:30 AM | 32 | 0.0 | 0.0 | 37 | 38 | 74.5 | 72.0 | 29.914 | 7.41 | 0.0 | 0 | 0.00 | 0.00 | 0.00 | 0.00 |
| 09/06/26 1:00:24 AM | 28 | 0.0 | 0.0 | 37 | 39 | 74.5 | 72.0 | 29.915 | 7.41 | 0.0 | 0 | 0.00 | 0.00 | 0.00 | 0.00 |
| 09/06/26 1:01:34 AM | 29 | 0.0 | 0.0 | 37 | 40 | 74.5 | 72.0 | 29.914 | 7.41 | 0.0 | 0 | 0.00 | 0.00 | 0.00 | 0.00 |
| 09/06/26 1:02:23 AM | 29 | 0.0 | 0.0 | 37 | 40 | 74.5 | 72.0 | 29.912 | 7.41 | 0.0 | 0 | 0.00 | 0.00 | 0.00 | 0.00 |
| 09/06/26 1:03:35 AM | 32 | 0.0 | 0.0 | 37 | 40 | 74.5 | 71.9 | 29.913 | 7.41 | 0.0 | 0 | 0.00 | 0.00 | 0.00 | 0.00 |
| 09/06/26 1:04:27 AM | 28 | 0.0 | 0.0 | 37 | 40 | 74.5 | 71.9 | 29.911 | 7.41 | 0.0 | 0 | 0.00 | 0.00 | 0.00 | 0.00 |
| 09/06/26 1:05:18 AM | 34 | 0.0 | 0.0 | 37 | 40 | 74.5 | 71.9 | 29.911 | 7.41 | 0.0 | 0 | 0.00 | 0.00 | 0.00 | 0.00 |
| 09/06/26 1:06:31 AM | 29 | 0.0 | 0.0 | 37 | 40 | 74.5 | 71.9 | 29.911 | 7.41 | 0.0 | 0 | 0.00 | 0.00 | 0.00 | 0.00 |
| 09/06/26 1:07:20 AM | 30 | 0.0 | 0.0 | 37 | 40 | 74.5 | 71.9 | 29.910 | 7.41 | 0.0 | 0 | 0.00 | 0.00 | 0.00 | 0.00 |
| 09/06/26 1:08:33 AM | 26 | 0.0 | 0.0 | 37 | 40 | 74.5 | 71.9 | 29.908 | 7.41 | 0.0 | 0 | 0.00 | 0.00 | 0.00 | 0.00 |
| 09/06/26 1:09:24 AM | 32 | 0.0 | 0.0 | 37 | 40 | 74.5 | 71.9 | 29.907 | 7.41 | 0.0 | 0 | 0.00 | 0.00 | 0.00 | 0.00 |
| 09/06/26 1:10:37 AM | 31 | 0.0 | 0.0 | 37 | 40 | 74.5 | 71.8 | 29.908 | 7.41 | 0.0 | 0 | 0.00 | 0.00 | 0.00 | 0.00 |
| 09/06/26 1:11:28 AM | 32 | 0.0 | 0.0 | 37 | 39 | 74.5 | 71.7 | 29.911 | 7.41 | 0.0 | 0 | 0.00 | 0.00 | 0.00 | 0.00 |
| 09/06/26 1:12:20 AM | 28 | 0.0 | 0.0 | 37 | 40 | 74.5 | 71.8 | 29.908 | 7.41 | 0.0 | 0 | 0.00 | 0.00 | 0.00 | 0.00 |
| 09/06/26 1:13:30 AM | 32 | 0.0 | 0.0 | 37 | 39 | 74.5 | 71.7 | 29.911 | 7.41 | 0.0 | 0 | 0.00 | 0.00 | 0.00 | 0.00 |
| 09/06/26 1:14:21 AM | 28 | 0.0 | 0.0 | 37 | 39 | 74.4 | 71.7 | 29.908 | 7.41 | 0.0 | 0 | 0.00 | 0.00 | 0.00 | 0.00 |
| 09/06/26 1:15:58 AM | 28 | 0.0 | 0.0 | 37 | 39 | 74.5 | 71.7 | 29.911 | 7.41 | 0.0 | 0 | 0.00 | 0.00 | 0.00 | 0.00 |
| 09/06/26 1:16:29 AM | 31 | 0.0 | 0.0 | 37 | 39 | 74.4 | 71.6 | 29.912 | 7.41 | 0.0 | 0 | 0.00 | 0.00 | 0.00 | 0.00 |
| 09/06/26 1:17:23 AM | 28 | 0.0 | 0.0 | 37 | 39 | 74.5 | 71.6 | 29.914 | 7.41 | 0.0 | 0 | 0.00 | 0.00 | 0.00 | 0.00 |
| 09/06/26 1:18:30 AM | 31 | 0.0 | 0.0 | 37 | 40 | 74.4 | 71.6 | 29.915 | 7.41 | 0.0 | 0 | 0.00 | 0.00 | 0.00 | 0.00 |
| 09/06/26 1:19:25 AM | 32 | 0.0 | 0.0 | 37 | 40 | 74.4 | 71.6 | 29.917 | 7.41 | 0.0 | 0 | 0.00 | 0.00 | 0.00 | 0.00 |
| 09/06/26 1:20:34 AM | 32 | 0.0 | 0.0 | 37 | 41 | 74.5 | 71.6 | 29.914 | 7.41 | 0.0 | 0 | 0.00 | 0.00 | 0.00 | 0.00 |
| 09/06/26 1:21:29 AM | 28 | 0.0 | 0.0 | 37 | 39 | 74.5 | 71.6 | 29.916 | 7.41 | 0.0 | 0 | 0.00 | 0.00 | 0.00 | 0.00 |
| 09/06/26 1:22:21 AM | 26 | 0.0 | 0.0 | 37 | 39 | 74.4 | 71.6 | 29.917 | 7.41 | 0.0 | 0 | 0.00 | 0.00 | 0.00 | 0.00 |
| 09/06/26 1:23:33 AM | 28 | 0.0 | 0.0 | 37 | 38 | 74.4 | 71.6 | 29.916 | 7.41 | 0.0 | 0 | 0.00 | 0.00 | 0.00 | 0.00 |
| 09/06/26 1:24:22 AM | 30 | 0.0 | 0.0 | 37 | 39 | 74.4 | 71.5 | 29.915 | 7.41 | 0.0 | 0 | 0.00 | 0.00 | 0.00 | 0.00 |
| 09/06/26 1:25:32 AM | 28 | 0.0 | 0.0 | 37 | 39 | 74.4 | 71.5 | 29.915 | 7.41 | 0.0 | 0 | 0.00 | 0.00 | 0.00 | 0.00 |
| 09/06/26 1:26:23 AM | 30 | 0.0 | 0.0 | 37 | 39 | 74.4 | 71.5 | 29.914 | 7.41 | 0.0 | 0 | 0.00 | 0.00 | 0.00 | 0.00 |
| 09/06/26 1:27:36 AM | 32 | 0.0 | 0.0 | 37 | 40 | 74.4 | 71.5 | 29.917 | 7.41 | 0.0 | 0 | 0.00 | 0.00 | 0.00 | 0.00 |
| 09/06/26 1:28:27 AM | 30 | 0.0 | 0.0 | 37 | 39 | 74.4 | 71.5 | 29.915 | 7.41 | 0.0 | 0 | 0.00 | 0.00 | 0.00 | 0.00 |
| 09/06/26 1:29:37 AM | 34 | 0.0 | 0.0 | 37 | 39 | 74.4 | 71.5 | 29.915 | 7.41 | 0.0 | 0 | 0.00 | 0.00 | 0.00 | 0.00 |
| 09/06/26 1:30:29 AM | 31 | 0.0 | 0.0 | 37 | 39 | 74.4 | 71.5 | 29.914 | 7.41 | 0.0 | 0 | 0.00 | 0.00 | 0.00 | 0.00 |
| 09/06/26 1:31:20 AM | 30 | 0.0 | 0.0 | 37 | 39 | 74.4 | 71.5 | 29.917 | 7.41 | 0.0 | 0 | 0.00 | 0.00 | 0.00 | 0.00 |
| 09/06/26 1:32:30 AM | 32 | 0.0 | 0.0 | 37 | 38 | 74.4 | 71.5 | 29.915 | 7.41 | 0.0 | 0 | 0.00 | 0.00 | 0.00 | 0.00 |
| 09/06/26 1:33:22 AM | 28 | 0.0 | 0.0 | 37 | 38 | 74.3 | 71.5 | 29.914 | 7.41 | 0.0 | 0 | 0.00 | 0.00 | 0.00 | 0.00 |
| 09/06/26 1:34:31 AM | 31 | 0.0 | 0.0 | 37 | 40 | 74.4 | 71.5 | 29.915 | 7.41 | 0.0 | 0 | 0.00 | 0.00 | 0.00 | 0.00 |
| 09/06/26 1:35:23 AM | 32 | 0.0 | 0.0 | 37 | 40 | 74.3 | 71.5 | 29.915 | 7.41 | 0.0 | 0 | 0.00 | 0.00 | 0.00 | 0.00 |
| 09/06/26 1:36:36 AM | 31 | 0.0 | 0.0 | 37 | 40 | 74.3 | 71.5 | 29.914 | 7.41 | 0.0 | 0 | 0.00 | 0.00 | 0.00 | 0.00 |
| 09/06/26 1:37:28 AM | 29 | 0.0 | 0.0 | 37 | 40 | 74.4 | 71.5 | 29.915 | 7.41 | 0.0 | 0 | 0.00 | 0.00 | 0.00 | 0.00 |
| 09/06/26 1:38:19 AM | 26 | 0.0 | 0.0 | 37 | 39 | 74.4 | 71.5 | 29.914 | 7.41 | 0.0 | 0 | 0.00 | 0.00 | 0.00 | 0.00 |
| 09/06/26 1:39:32 AM | 31 | 0.0 | 0.0 | 37 | 40 | 74.4 | 71.5 | 29.914 | 7.41 | 0.0 | 0 | 0.00 | 0.00 | 0.00 | 0.00 |
| 09/06/26 1:40:21 AM | 30 | 0.0 | 0.0 | 37 | 40 | 74.3 | 71.5 | 29.914 | 7.41 | 0.0 | 0 | 0.00 | 0.00 | 0.00 | 0.00 |
| 09/06/26 1:41:30 AM | 32 | 0.0 | 0.0 | 37 | 39 | 74.4 | 71.5 | 29.916 | 7.41 | 0.0 | 0 | 0.00 | 0.00 | 0.00 | 0.00 |
| 09/06/26 1:42:22 AM | 31 | 0.0 | 0.0 | 37 | 39 | 74.3 | 71.5 | 29.916 | 7.41 | 0.0 | 0 | 0.00 | 0.00 | 0.00 | 0.00 |
| 09/06/26 1:43:35 AM | 28 | 0.0 | 0.0 | 37 | 40 | 74.3 | 71.5 | 29.914 | 7.41 | 0.0 | 0 | 0.00 | 0.00 | 0.00 | 0.00 |
| 09/06/26 1:44:26 AM | 32 | 0.0 | 0.0 | 37 | 41 | 74.3 | 71.4 | 29.914 | 7.41 | 0.0 | 0 | 0.00 | 0.00 | 0.00 | 0.00 |
| 09/06/26 1:45:36 AM | 32 | 0.0 | 0.0 | 37 | 40 | 74.3 | 71.4 | 29.915 | 7.41 | 0.0 | 0 | 0.00 | 0.00 | 0.00 | 0.00 |
| 09/06/26 1:46:28 AM | 31 | 0.0 | 0.0 | 37 | 40 | 74.3 | 71.4 | 29.915 | 7.41 | 0.0 | 0 | 0.00 | 0.00 | 0.00 | 0.00 |
| 09/06/26 1:47:19 AM | 28 | 0.0 | 0.0 | 37 | 40 | 74.3 | 71.4 | 29.915 | 7.41 | 0.0 | 0 | 0.00 | 0.00 | 0.00 | 0.00 |
| 09/06/26 1:48:29 AM | 31 | 0.0 | 0.0 | 37 | 40 | 74.4 | 71.3 | 29.916 | 7.41 | 0.0 | 0 | 0.00 | 0.00 | 0.00 | 0.00 |
| 09/06/26 1:49:21 AM | 32 | 0.0 | 0.0 | 37 | 39 | 74.3 | 71.3 | 29.914 | 7.41 | 0.0 | 0 | 0.00 | 0.00 | 0.00 | 0.00 |
| 09/06/26 1:50:27 AM | 32 | 0.0 | 0.0 | 37 | 39 | 74.3 | 71.3 | 29.914 | 7.41 | 0.0 | 0 | 0.00 | 0.00 | 0.00 | 0.00 |
| 09/06/26 1:51:22 AM | 29 | 0.0 | 0.0 | 37 | 40 | 74.3 | 71.3 | 29.913 | 7.41 | 0.0 | 0 | 0.00 | 0.00 | 0.00 | 0.00 |
| 09/06/26 1:52:32 AM | 30 | 0.0 | 0.0 | 37 | 39 | 74.3 | 71.3 | 29.913 | 7.41 | 0.0 | 0 | 0.00 | 0.00 | 0.00 | 0.00 |
| 09/06/26 1:53:23 AM | 30 | 0.0 | 0.0 | 37 | 39 | 74.3 | 71.2 | 29.912 | 7.41 | 0.0 | 0 | 0.00 | 0.00 | 0.00 | 0.00 |
| 09/06/26 1:54:36 AM | 31 | 0.0 | 0.0 | 37 | 40 | 74.3 | 71.2 | 29.914 | 7.41 | 0.0 | 0 | 0.00 | 0.00 | 0.00 | 0.00 |
| 09/06/26 1:55:28 AM | 31 | 0.0 | 0.0 | 37 | 39 | 74.3 | 71.2 | 29.916 | 7.41 | 0.0 | 0 | 0.00 | 0.00 | 0.00 | 0.00 |
| 09/06/26 1:56:35 AM | 31 | 0.0 | 0.0 | 37 | 38 | 74.3 | 71.2 | 29.915 | 7.41 | 0.0 | 0 | 0.00 | 0.00 | 0.00 | 0.00 |
| 09/06/26 1:57:26 AM | 31 | 0.0 | 0.0 | 37 | 38 | 74.3 | 71.2 | 29.915 | 7.41 | 0.0 | 0 | 0.00 | 0.00 | 0.00 | 0.00 |
| 09/06/26 1:58:18 AM | 32 | 0.0 | 0.0 | 37 | 39 | 74.3 | 71.2 | 29.912 | 7.41 | 0.0 | 0 | 0.00 | 0.00 | 0.00 | 0.00 |
| 09/06/26 1:59:31 AM | 31 | 0.0 | 0.0 | 37 | 39 | 74.3 | 71.2 | 29.912 | 7.41 | 0.0 | 0 | 0.00 | 0.00 | 0.00 | 0.00 |
| 09/06/26 2:00:25 AM | 32 | 0.0 | 0.0 | 37 | 39 | 74.3 | 71.2 | 29.914 | 7.41 | 0.0 | 0 | 0.00 | 0.00 | 0.00 | 0.00 |
| 09/06/26 2:01:32 AM | 31 | 0.0 | 0.0 | 37 | 39 | 74.3 | 71.2 | 29.912 | 7.41 | 0.0 | 0 | 0.00 | 0.00 | 0.00 | 0.00 |
| 09/06/26 2:02:24 AM | 32 | 0.0 | 0.0 | 37 | 39 | 74.3 | 71.2 | 29.913 | 7.41 | 0.0 | 0 | 0.00 | 0.00 | 0.00 | 0.00 |
| 09/06/26 2:03:15 AM | 31 | 0.0 | 0.0 | 37 | 39 | 74.3 | 71.2 | 29.911 | 7.41 | 0.0 | 0 | 0.00 | 0.00 | 0.00 | 0.00 |
| 09/06/26 2:04:28 AM | 28 | 0.0 | 0.0 | 37 | 40 | 74.3 | 71.2 | 29.912 | 7.41 | 0.0 | 0 | 0.00 | 0.00 | 0.00 | 0.00 |
| 09/06/26 2:05:20 AM | 28 | 0.0 | 0.0 | 37 | 40 | 74.3 | 71.2 | 29.911 | 7.41 | 0.0 | 0 | 0.00 | 0.00 | 0.00 | 0.00 |
| 09/06/26 2:06:30 AM | 32 | 0.0 | 0.0 | 37 | 41 | 74.3 | 71.2 | 29.914 | 7.41 | 0.0 | 0 | 0.00 | 0.00 | 0.00 | 0.00 |
| 09/06/26 2:07:21 AM | 27 | 0.0 | 0.0 | 37 | 40 | 74.3 | 71.2 | 29.913 | 7.41 | 0.0 | 0 | 0.00 | 0.00 | 0.00 | 0.00 |
| 09/06/26 2:08:31 AM | 30 | 0.0 | 0.0 | 37 | 41 | 74.3 | 71.3 | 29.910 | 7.41 | 0.0 | 0 | 0.00 | 0.00 | 0.00 | 0.00 |
| 09/06/26 2:09:26 AM | 27 | 0.0 | 0.0 | 37 | 40 | 74.3 | 71.2 | 29.911 | 7.41 | 0.0 | 0 | 0.00 | 0.00 | 0.00 | 0.00 |
| 09/06/26 2:10:35 AM | 31 | 0.0 | 0.0 | 37 | 40 | 74.3 | 71.3 | 29.912 | 7.41 | 0.0 | 0 | 0.00 | 0.00 | 0.00 | 0.00 |
| 09/06/26 2:11:27 AM | 32 | 0.0 | 0.0 | 37 | 40 | 74.3 | 71.3 | 29.911 | 7.41 | 0.0 | 0 | 0.00 | 0.00 | 0.00 | 0.00 |
| 09/06/26 2:12:16 AM | 28 | 0.0 | 0.0 | 37 | 41 | 74.3 | 71.3 | 29.914 | 7.41 | 0.0 | 0 | 0.00 | 0.00 | 0.00 | 0.00 |
| 09/06/26 2:13:28 AM | 29 | 0.0 | 0.0 | 37 | 40 | 74.2 | 71.3 | 29.913 | 7.41 | 0.0 | 0 | 0.00 | 0.00 | 0.00 | 0.00 |
| 09/06/26 2:14:20 AM | 32 | 0.0 | 0.0 | 37 | 40 | 74.2 | 71.3 | 29.916 | 7.41 | 0.0 | 0 | 0.00 | 0.00 | 0.00 | 0.00 |
| 09/06/26 2:15:33 AM | 32 | 0.0 | 0.0 | 37 | 41 | 74.3 | 71.3 | 29.915 | 7.41 | 0.0 | 0 | 0.00 | 0.00 | 0.00 | 0.00 |
| 09/06/26 2:16:25 AM | 30 | 0.0 | 0.0 | 37 | 40 | 74.3 | 71.3 | 29.917 | 7.41 | 0.0 | 0 | 0.00 | 0.00 | 0.00 | 0.00 |
| 09/06/26 2:17:31 AM | 31 | 0.0 | 0.0 | 37 | 41 | 74.3 | 71.3 | 29.916 | 7.41 | 0.0 | 0 | 0.00 | 0.00 | 0.00 | 0.00 |
| 09/06/26 2:18:23 AM | 28 | 0.0 | 0.0 | 37 | 41 | 74.2 | 71.3 | 29.918 | 7.41 | 0.0 | 0 | 0.00 | 0.00 | 0.00 | 0.00 |
| 09/06/26 2:19:18 AM | 28 | 0.0 | 0.0 | 37 | 40 | 74.3 | 71.3 | 29.916 | 7.41 | 0.0 | 0 | 0.00 | 0.00 | 0.00 | 0.00 |
| 09/06/26 2:20:27 AM | 32 | 0.0 | 0.0 | 37 | 40 | 74.2 | 71.2 | 29.917 | 7.41 | 0.0 | 0 | 0.00 | 0.00 | 0.00 | 0.00 |
| 09/06/26 2:21:19 AM | 31 | 0.0 | 0.0 | 37 | 40 | 74.2 | 71.2 | 29.916 | 7.41 | 0.0 | 0 | 0.00 | 0.00 | 0.00 | 0.00 |
| 09/06/26 2:22:26 AM | 32 | 0.0 | 0.0 | 37 | 40 | 74.2 | 71.2 | 29.917 | 7.41 | 0.0 | 0 | 0.00 | 0.00 | 0.00 | 0.00 |
| 09/06/26 2:23:21 AM | 31 | 0.0 | 0.0 | 37 | 40 | 74.2 | 71.2 | 29.918 | 7.41 | 0.0 | 0 | 0.00 | 0.00 | 0.00 | 0.00 |
| 09/06/26 2:24:33 AM | 27 | 0.0 | 0.0 | 37 | 40 | 74.2 | 71.2 | 29.918 | 7.41 | 0.0 | 0 | 0.00 | 0.00 | 0.00 | 0.00 |
| 09/06/26 2:25:22 AM | 31 | 0.0 | 0.0 | 37 | 40 | 74.2 | 71.2 | 29.915 | 7.41 | 0.0 | 0 | 0.00 | 0.00 | 0.00 | 0.00 |
| 09/06/26 2:26:35 AM | 35 | 0.0 | 0.0 | 37 | 40 | 74.2 | 71.2 | 29.918 | 7.41 | 0.0 | 0 | 0.00 | 0.00 | 0.00 | 0.00 |
| 09/06/26 2:27:27 AM | 34 | 0.0 | 0.0 | 37 | 40 | 74.2 | 71.2 | 29.919 | 7.41 | 0.0 | 0 | 0.00 | 0.00 | 0.00 | 0.00 |
| 09/06/26 2:28:36 AM | 32 | 0.0 | 0.0 | 37 | 40 | 74.2 | 71.2 | 29.919 | 7.41 | 0.0 | 0 | 0.00 | 0.00 | 0.00 | 0.00 |
| 09/06/26 2:29:28 AM | 34 | 0.0 | 0.0 | 37 | 39 | 74.2 | 71.1 | 29.917 | 7.41 | 0.0 | 0 | 0.00 | 0.00 | 0.00 | 0.00 |
| 09/06/26 2:30:41 AM | 28 | 0.0 | 0.0 | 37 | 39 | 74.2 | 71.1 | 29.918 | 7.41 | 0.0 | 0 | 0.00 | 0.00 | 0.00 | 0.00 |
| 09/06/26 2:31:32 AM | 31 | 0.0 | 0.0 | 37 | 39 | 74.2 | 71.1 | 29.917 | 7.41 | 0.0 | 0 | 0.00 | 0.00 | 0.00 | 0.00 |
| 09/06/26 2:32:21 AM | 32 | 0.0 | 0.0 | 37 | 39 | 74.2 | 71.1 | 29.915 | 7.41 | 0.0 | 0 | 0.00 | 0.00 | 0.00 | 0.00 |
| 09/06/26 2:33:31 AM | 32 | 0.0 | 0.0 | 37 | 39 | 74.2 | 71.1 | 29.914 | 7.41 | 0.0 | 0 | 0.00 | 0.00 | 0.00 | 0.00 |
| 09/06/26 2:34:23 AM | 32 | 0.0 | 0.0 | 37 | 39 | 74.2 | 71.0 | 29.911 | 7.41 | 0.0 | 0 | 0.00 | 0.00 | 0.00 | 0.00 |
| 09/06/26 2:35:35 AM | 26 | 0.0 | 0.0 | 37 | 39 | 74.2 | 71.0 | 29.911 | 7.41 | 0.0 | 0 | 0.00 | 0.00 | 0.00 | 0.00 |
| 09/06/26 2:36:27 AM | 28 | 0.0 | 0.0 | 37 | 39 | 74.2 | 71.0 | 29.913 | 7.41 | 0.0 | 0 | 0.00 | 0.00 | 0.00 | 0.00 |
| 09/06/26 2:37:19 AM | 31 | 0.0 | 0.0 | 37 | 39 | 74.2 | 71.0 | 29.911 | 7.41 | 0.0 | 0 | 0.00 | 0.00 | 0.00 | 0.00 |
| 09/06/26 2:38:29 AM | 31 | 0.0 | 0.0 | 37 | 39 | 74.2 | 71.0 | 29.911 | 7.41 | 0.0 | 0 | 0.00 | 0.00 | 0.00 | 0.00 |
| 09/06/26 2:39:17 AM | 32 | 0.0 | 0.0 | 37 | 39 | 74.2 | 71.0 | 29.910 | 7.41 | 0.0 | 0 | 0.00 | 0.00 | 0.00 | 0.00 |
| 09/06/26 2:40:30 AM | 25 | 0.0 | 0.0 | 37 | 39 | 74.2 | 71.0 | 29.909 | 7.41 | 0.0 | 0 | 0.00 | 0.00 | 0.00 | 0.00 |
| 09/06/26 2:41:22 AM | 30 | 0.0 | 0.0 | 37 | 39 | 74.2 | 71.0 | 29.908 | 7.41 | 0.0 | 0 | 0.00 | 0.00 | 0.00 | 0.00 |
| 09/06/26 2:42:34 AM | 31 | 0.0 | 0.0 | 37 | 39 | 74.2 | 71.0 | 29.910 | 7.41 | 0.0 | 0 | 0.00 | 0.00 | 0.00 | 0.00 |
| 09/06/26 2:43:26 AM | 32 | 0.0 | 0.0 | 37 | 39 | 74.2 | 71.0 | 29.910 | 7.41 | 0.0 | 0 | 0.00 | 0.00 | 0.00 | 0.00 |
| 09/06/26 2:44:33 AM | 31 | 0.0 | 0.0 | 37 | 39 | 74.1 | 71.0 | 29.907 | 7.41 | 0.0 | 0 | 0.00 | 0.00 | 0.00 | 0.00 |
| 09/06/26 2:45:28 AM | 23 | 0.0 | 0.0 | 37 | 39 | 74.2 | 71.0 | 29.906 | 7.41 | 0.0 | 0 | 0.00 | 0.00 | 0.00 | 0.00 |
| 09/06/26 2:46:16 AM | 30 | 0.0 | 0.0 | 37 | 38 | 74.1 | 71.0 | 29.907 | 7.41 | 0.0 | 0 | 0.00 | 0.00 | 0.00 | 0.00 |
| 09/06/26 2:47:29 AM | 29 | 0.0 | 0.0 | 37 | 38 | 74.1 | 71.1 | 29.907 | 7.41 | 0.0 | 0 | 0.00 | 0.00 | 0.00 | 0.00 |
| 09/06/26 2:48:24 AM | 30 | 0.0 | 0.0 | 37 | 38 | 74.1 | 71.1 | 29.907 | 7.41 | 0.0 | 0 | 0.00 | 0.00 | 0.00 | 0.00 |
| 09/06/26 2:49:30 AM | 32 | 0.0 | 0.0 | 37 | 39 | 74.2 | 71.1 | 29.905 | 7.41 | 0.0 | 0 | 0.00 | 0.00 | 0.00 | 0.00 |
| 09/06/26 2:50:22 AM | 30 | 0.0 | 0.0 | 37 | 38 | 74.1 | 71.2 | 29.904 | 7.41 | 0.0 | 0 | 0.00 | 0.00 | 0.00 | 0.00 |
| 09/06/26 2:51:35 AM | 30 | 0.0 | 0.0 | 37 | 38 | 74.2 | 71.2 | 29.904 | 7.41 | 0.0 | 0 | 0.00 | 0.00 | 0.00 | 0.00 |
| 09/06/26 2:52:27 AM | 27 | 0.0 | 0.0 | 37 | 38 | 74.1 | 71.3 | 29.905 | 7.41 | 0.0 | 0 | 0.00 | 0.00 | 0.00 | 0.00 |
| 09/06/26 2:53:18 AM | 34 | 0.0 | 0.0 | 37 | 39 | 74.2 | 71.3 | 29.900 | 7.41 | 0.0 | 0 | 0.00 | 0.00 | 0.00 | 0.00 |
| 09/06/26 2:54:31 AM | 31 | 0.0 | 0.0 | 37 | 39 | 74.1 | 71.4 | 29.901 | 7.41 | 0.0 | 0 | 0.00 | 0.00 | 0.00 | 0.00 |
| 09/06/26 2:55:20 AM | 32 | 0.0 | 0.0 | 37 | 41 | 74.2 | 71.5 | 29.904 | 7.41 | 0.0 | 0 | 0.00 | 0.00 | 0.00 | 0.00 |
| 09/06/26 2:56:33 AM | 31 | 0.0 | 0.0 | 37 | 40 | 74.1 | 71.5 | 29.900 | 7.41 | 0.0 | 0 | 0.00 | 0.00 | 0.00 | 0.00 |
| 09/06/26 2:57:24 AM | 32 | 0.0 | 0.0 | 37 | 40 | 74.1 | 71.5 | 29.898 | 7.41 | 0.0 | 0 | 0.00 | 0.00 | 0.00 | 0.00 |
| 09/06/26 2:58:37 AM | 32 | 0.0 | 0.0 | 37 | 40 | 74.1 | 71.6 | 29.901 | 7.41 | 0.0 | 0 | 0.00 | 0.00 | 0.00 | 0.00 |
| 09/06/26 2:59:26 AM | 28 | 0.0 | 0.0 | 37 | 40 | 74.1 | 71.6 | 29.902 | 7.41 | 0.0 | 0 | 0.00 | 0.00 | 0.00 | 0.00 |
| 09/06/26 3:00:36 AM | 31 | 0.0 | 0.0 | 37 | 39 | 74.1 | 71.6 | 29.902 | 7.41 | 0.0 | 0 | 0.00 | 0.00 | 0.00 | 0.00 |
| 09/06/26 3:01:27 AM | 32 | 0.0 | 0.0 | 37 | 39 | 74.1 | 71.6 | 29.906 | 7.41 | 0.0 | 0 | 0.00 | 0.00 | 0.00 | 0.00 |
| 09/06/26 3:02:19 AM | 31 | 0.0 | 0.0 | 37 | 39 | 74.1 | 71.7 | 29.906 | 7.41 | 0.0 | 0 | 0.00 | 0.00 | 0.00 | 0.00 |
| 09/06/26 3:03:29 AM | 29 | 0.0 | 0.0 | 37 | 40 | 74.1 | 71.7 | 29.906 | 7.41 | 0.0 | 0 | 0.00 | 0.00 | 0.00 | 0.00 |
| 09/06/26 3:04:24 AM | 26 | 0.0 | 0.0 | 37 | 40 | 74.1 | 71.6 | 29.905 | 7.41 | 0.0 | 0 | 0.00 | 0.00 | 0.00 | 0.00 |
| 09/06/26 3:05:30 AM | 28 | 0.0 | 0.0 | 37 | 40 | 74.1 | 71.7 | 29.905 | 7.41 | 0.0 | 0 | 0.00 | 0.00 | 0.00 | 0.00 |
| 09/06/26 3:06:22 AM | 31 | 0.0 | 0.0 | 37 | 41 | 74.1 | 71.7 | 29.902 | 7.41 | 0.0 | 0 | 0.00 | 0.00 | 0.00 | 0.00 |
| 09/06/26 3:07:35 AM | 32 | 0.0 | 0.0 | 37 | 41 | 74.1 | 71.7 | 29.903 | 7.41 | 0.0 | 0 | 0.00 | 0.00 | 0.00 | 0.00 |
| 09/06/26 3:08:26 AM | 29 | 0.0 | 0.0 | 37 | 41 | 74.1 | 71.7 | 29.904 | 7.41 | 0.0 | 0 | 0.00 | 0.00 | 0.00 | 0.00 |
| 09/06/26 3:09:18 AM | 32 | 0.0 | 0.0 | 37 | 41 | 74.1 | 71.7 | 29.903 | 7.41 | 0.0 | 0 | 0.00 | 0.00 | 0.00 | 0.00 |
| 09/06/26 3:10:31 AM | 32 | 0.0 | 0.0 | 37 | 41 | 74.1 | 71.7 | 29.902 | 7.41 | 0.0 | 0 | 0.00 | 0.00 | 0.00 | 0.00 |
| 09/06/26 3:11:20 AM | 32 | 0.0 | 0.0 | 37 | 40 | 74.1 | 71.7 | 29.902 | 7.41 | 0.0 | 0 | 0.00 | 0.00 | 0.00 | 0.00 |
| 09/06/26 3:12:32 AM | 31 | 0.0 | 0.0 | 37 | 40 | 74.1 | 71.6 | 29.901 | 7.41 | 0.0 | 0 | 0.00 | 0.00 | 0.00 | 0.00 |
| 09/06/26 3:13:24 AM | 32 | 0.0 | 0.0 | 37 | 39 | 74.1 | 71.7 | 29.900 | 7.41 | 0.0 | 0 | 0.00 | 0.00 | 0.00 | 0.00 |
| 09/06/26 3:14:16 AM | 28 | 0.0 | 0.0 | 37 | 39 | 74.1 | 71.6 | 29.901 | 7.41 | 0.0 | 0 | 0.00 | 0.00 | 0.00 | 0.00 |
| 09/06/26 3:15:29 AM | 30 | 0.0 | 0.0 | 37 | 39 | 74.1 | 71.6 | 29.899 | 7.41 | 0.0 | 0 | 0.00 | 0.00 | 0.00 | 0.00 |
| 09/06/26 3:16:35 AM | 32 | 0.0 | 0.0 | 37 | 39 | 74.1 | 71.6 | 29.899 | 7.41 | 0.0 | 0 | 0.00 | 0.00 | 0.00 | 0.00 |
| 09/06/26 3:17:27 AM | 32 | 0.0 | 0.0 | 37 | 39 | 74.1 | 71.5 | 29.900 | 7.41 | 0.0 | 0 | 0.00 | 0.00 | 0.00 | 0.00 |
| 09/06/26 3:18:19 AM | 30 | 0.0 | 0.0 | 37 | 39 | 74.1 | 71.5 | 29.899 | 7.41 | 0.0 | 0 | 0.00 | 0.00 | 0.00 | 0.00 |
| 09/06/26 3:19:32 AM | 34 | 0.0 | 0.0 | 37 | 39 | 74.1 | 71.5 | 29.900 | 7.41 | 0.0 | 0 | 0.00 | 0.00 | 0.00 | 0.00 |
| 09/06/26 3:20:24 AM | 28 | 0.0 | 0.0 | 37 | 39 | 74.1 | 71.5 | 29.900 | 7.41 | 0.0 | 0 | 0.00 | 0.00 | 0.00 | 0.00 |
| 09/06/26 3:21:15 AM | 32 | 0.0 | 0.0 | 37 | 40 | 74.1 | 71.5 | 29.899 | 7.41 | 0.0 | 0 | 0.00 | 0.00 | 0.00 | 0.00 |
| 09/06/26 3:22:25 AM | 26 | 0.0 | 0.0 | 37 | 40 | 74.1 | 71.5 | 29.901 | 7.41 | 0.0 | 0 | 0.00 | 0.00 | 0.00 | 0.00 |
| 09/06/26 3:23:17 AM | 32 | 0.0 | 0.0 | 37 | 40 | 74.1 | 71.5 | 29.899 | 7.41 | 0.0 | 0 | 0.00 | 0.00 | 0.00 | 0.00 |
| 09/06/26 3:24:27 AM | 31 | 0.0 | 0.0 | 37 | 40 | 74.0 | 71.4 | 29.900 | 7.41 | 0.0 | 0 | 0.00 | 0.00 | 0.00 | 0.00 |
| 09/06/26 3:25:18 AM | 28 | 0.0 | 0.0 | 37 | 40 | 74.0 | 71.4 | 29.896 | 7.41 | 0.0 | 0 | 0.00 | 0.00 | 0.00 | 0.00 |
| 09/06/26 3:26:31 AM | 31 | 0.0 | 0.0 | 37 | 40 | 74.1 | 71.4 | 29.898 | 7.41 | 0.0 | 0 | 0.00 | 0.00 | 0.00 | 0.00 |
| 09/06/26 3:27:20 AM | 29 | 0.0 | 0.0 | 37 | 40 | 74.1 | 71.4 | 29.899 | 7.41 | 0.0 | 0 | 0.00 | 0.00 | 0.00 | 0.00 |
| 09/06/26 3:28:33 AM | 32 | 0.0 | 0.0 | 37 | 41 | 74.1 | 71.4 | 29.901 | 7.41 | 0.0 | 0 | 0.00 | 0.00 | 0.00 | 0.00 |
| 09/06/26 3:29:24 AM | 32 | 0.0 | 0.0 | 37 | 41 | 74.1 | 71.4 | 29.901 | 7.41 | 0.0 | 0 | 0.00 | 0.00 | 0.00 | 0.00 |
| 09/06/26 3:30:37 AM | 30 | 0.0 | 0.0 | 37 | 41 | 74.1 | 71.4 | 29.903 | 7.41 | 0.0 | 0 | 0.00 | 0.00 | 0.00 | 0.00 |
| 09/06/26 3:31:29 AM | 28 | 0.0 | 0.0 | 37 | 41 | 74.0 | 71.4 | 29.901 | 7.41 | 0.0 | 0 | 0.00 | 0.00 | 0.00 | 0.00 |
| 09/06/26 3:32:36 AM | 34 | 0.0 | 0.0 | 37 | 42 | 74.1 | 71.3 | 29.902 | 7.41 | 0.0 | 0 | 0.00 | 0.00 | 0.00 | 0.00 |
| 09/06/26 3:33:27 AM | 31 | 0.0 | 0.0 | 37 | 42 | 74.0 | 71.3 | 29.900 | 7.41 | 0.0 | 0 | 0.00 | 0.00 | 0.00 | 0.00 |
| 09/06/26 3:34:19 AM | 34 | 0.0 | 0.0 | 37 | 42 | 74.1 | 71.3 | 29.902 | 7.41 | 0.0 | 0 | 0.00 | 0.00 | 0.00 | 0.00 |
| 09/06/26 3:35:32 AM | 32 | 0.0 | 0.0 | 37 | 41 | 74.0 | 71.3 | 29.901 | 7.41 | 0.0 | 0 | 0.00 | 0.00 | 0.00 | 0.00 |
| 09/06/26 3:36:23 AM | 31 | 0.0 | 0.0 | 37 | 41 | 74.1 | 71.3 | 29.902 | 7.41 | 0.0 | 0 | 0.00 | 0.00 | 0.00 | 0.00 |
| 09/06/26 3:37:30 AM | 30 | 0.0 | 0.0 | 37 | 40 | 74.1 | 71.2 | 29.901 | 7.41 | 0.0 | 0 | 0.00 | 0.00 | 0.00 | 0.00 |
| 09/06/26 3:38:22 AM | 32 | 0.0 | 0.0 | 37 | 40 | 74.0 | 71.2 | 29.902 | 7.41 | 0.0 | 0 | 0.00 | 0.00 | 0.00 | 0.00 |
| 09/06/26 3:39:35 AM | 31 | 0.0 | 0.0 | 37 | 40 | 74.0 | 71.2 | 29.902 | 7.41 | 0.0 | 0 | 0.00 | 0.00 | 0.00 | 0.00 |
| 09/06/26 3:40:27 AM | 32 | 0.0 | 0.0 | 37 | 40 | 74.0 | 71.3 | 29.903 | 7.41 | 0.0 | 0 | 0.00 | 0.00 | 0.00 | 0.00 |
| 09/06/26 3:41:18 AM | 29 | 0.0 | 0.0 | 37 | 40 | 74.0 | 71.3 | 29.904 | 7.41 | 0.0 | 0 | 0.00 | 0.00 | 0.00 | 0.00 |
| 09/06/26 3:42:28 AM | 26 | 0.0 | 0.0 | 37 | 40 | 74.0 | 71.3 | 29.902 | 7.41 | 0.0 | 0 | 0.00 | 0.00 | 0.00 | 0.00 |
| 09/06/26 3:43:17 AM | 30 | 0.0 | 0.0 | 37 | 40 | 74.1 | 71.3 | 29.902 | 7.41 | 0.0 | 0 | 0.00 | 0.00 | 0.00 | 0.00 |
| 09/06/26 3:44:30 AM | 32 | 0.0 | 0.0 | 37 | 41 | 74.0 | 71.3 | 29.901 | 7.41 | 0.0 | 0 | 0.00 | 0.00 | 0.00 | 0.00 |
| 09/06/26 3:45:21 AM | 28 | 0.0 | 0.0 | 37 | 41 | 74.0 | 71.3 | 29.901 | 7.41 | 0.0 | 0 | 0.00 | 0.00 | 0.00 | 0.00 |
| 09/06/26 3:46:34 AM | 28 | 0.0 | 0.0 | 37 | 41 | 74.0 | 71.3 | 29.898 | 7.41 | 0.0 | 0 | 0.00 | 0.00 | 0.00 | 0.00 |
| 09/06/26 3:47:26 AM | 25 | 0.0 | 0.0 | 37 | 41 | 74.0 | 71.4 | 29.898 | 7.41 | 0.0 | 0 | 0.00 | 0.00 | 0.00 | 0.00 |
| 09/06/26 3:48:33 AM | 28 | 0.0 | 0.0 | 38 | 41 | 74.0 | 71.4 | 29.897 | 7.41 | 0.0 | 0 | 0.00 | 0.00 | 0.00 | 0.00 |
| 09/06/26 3:49:25 AM | 30 | 0.0 | 0.0 | 38 | 41 | 74.1 | 71.4 | 29.898 | 7.41 | 0.0 | 0 | 0.00 | 0.00 | 0.00 | 0.00 |
| 09/06/26 3:50:16 AM | 34 | 0.0 | 0.0 | 38 | 41 | 74.0 | 71.4 | 29.896 | 7.41 | 0.0 | 0 | 0.00 | 0.00 | 0.00 | 0.00 |
| 09/06/26 3:51:29 AM | 29 | 0.0 | 0.0 | 38 | 40 | 74.0 | 71.4 | 29.896 | 7.41 | 0.0 | 0 | 0.00 | 0.00 | 0.00 | 0.00 |
| 09/06/26 3:52:21 AM | 32 | 0.0 | 0.0 | 38 | 40 | 74.0 | 71.4 | 29.894 | 7.41 | 0.0 | 0 | 0.00 | 0.00 | 0.00 | 0.00 |
| 09/06/26 3:53:28 AM | 26 | 0.0 | 0.0 | 38 | 40 | 74.0 | 71.5 | 29.892 | 7.41 | 0.0 | 0 | 0.00 | 0.00 | 0.00 | 0.00 |
| 09/06/26 3:54:22 AM | 29 | 0.0 | 0.0 | 38 | 40 | 74.1 | 71.5 | 29.893 | 7.41 | 0.0 | 0 | 0.00 | 0.00 | 0.00 | 0.00 |
| 09/06/26 3:55:35 AM | 29 | 0.0 | 0.0 | 38 | 41 | 74.0 | 71.5 | 29.892 | 7.41 | 0.0 | 0 | 0.00 | 0.00 | 0.00 | 0.00 |
| 09/06/26 3:56:27 AM | 32 | 0.0 | 0.0 | 38 | 41 | 74.0 | 71.6 | 29.891 | 7.41 | 0.0 | 0 | 0.00 | 0.00 | 0.00 | 0.00 |
| 09/06/26 3:57:19 AM | 28 | 0.0 | 0.0 | 38 | 42 | 74.0 | 71.6 | 29.890 | 7.41 | 0.0 | 0 | 0.00 | 0.00 | 0.00 | 0.00 |
| 09/06/26 3:58:31 AM | 30 | 0.0 | 0.0 | 38 | 43 | 74.0 | 71.6 | 29.892 | 7.41 | 0.0 | 0 | 0.00 | 0.00 | 0.00 | 0.00 |
| 09/06/26 3:59:17 AM | 31 | 0.0 | 0.0 | 38 | 43 | 74.0 | 71.7 | 29.891 | 7.41 | 0.0 | 0 | 0.00 | 0.00 | 0.00 | 0.00 |
| 09/06/26 4:00:33 AM | 32 | 0.0 | 0.0 | 38 | 43 | 74.0 | 71.7 | 29.891 | 7.41 | 0.0 | 0 | 0.00 | 0.00 | 0.00 | 0.00 |
| 09/06/26 4:01:22 AM | 28 | 0.0 | 0.0 | 38 | 42 | 74.0 | 71.7 | 29.893 | 7.41 | 0.0 | 0 | 0.00 | 0.00 | 0.00 | 0.00 |
| 09/06/26 4:02:35 AM | 34 | 0.0 | 0.0 | 38 | 43 | 74.0 | 71.8 | 29.893 | 7.41 | 0.0 | 0 | 0.00 | 0.00 | 0.00 | 0.00 |
| 09/06/26 4:03:26 AM | 30 | 0.0 | 0.0 | 38 | 43 | 74.0 | 71.8 | 29.894 | 7.41 | 0.0 | 0 | 0.00 | 0.00 | 0.00 | 0.00 |
| 09/06/26 4:04:33 AM | 31 | 0.0 | 0.0 | 38 | 42 | 74.0 | 71.8 | 29.895 | 7.41 | 0.0 | 0 | 0.00 | 0.00 | 0.00 | 0.00 |
| 09/06/26 4:05:25 AM | 32 | 0.0 | 0.0 | 38 | 42 | 74.0 | 71.8 | 29.895 | 7.41 | 0.0 | 0 | 0.00 | 0.00 | 0.00 | 0.00 |
| 09/06/26 4:06:20 AM | 32 | 0.0 | 0.0 | 38 | 42 | 74.0 | 71.9 | 29.895 | 7.41 | 0.0 | 0 | 0.00 | 0.00 | 0.00 | 0.00 |
| 09/06/26 4:07:33 AM | 31 | 0.0 | 0.0 | 38 | 42 | 74.0 | 71.9 | 29.896 | 7.41 | 0.0 | 0 | 0.00 | 0.00 | 0.00 | 0.00 |
| 09/06/26 4:08:28 AM | 35 | 0.0 | 0.0 | 38 | 42 | 74.0 | 71.9 | 29.895 | 7.41 | 0.0 | 0 | 0.00 | 0.00 | 0.00 | 0.00 |
| 09/06/26 4:09:16 AM | 31 | 0.0 | 0.0 | 38 | 42 | 74.0 | 71.9 | 29.895 | 7.41 | 0.0 | 0 | 0.00 | 0.00 | 0.00 | 0.00 |
| 09/06/26 4:10:26 AM | 31 | 0.0 | 0.0 | 38 | 41 | 74.0 | 71.9 | 29.893 | 7.41 | 0.0 | 0 | 0.00 | 0.00 | 0.00 | 0.00 |
| 09/06/26 4:11:18 AM | 30 | 0.0 | 0.0 | 38 | 42 | 74.0 | 72.0 | 29.896 | 7.41 | 0.0 | 0 | 0.00 | 0.00 | 0.00 | 0.00 |
| 09/06/26 4:12:31 AM | 32 | 0.0 | 0.0 | 38 | 41 | 74.0 | 72.0 | 29.897 | 7.41 | 0.0 | 0 | 0.00 | 0.00 | 0.00 | 0.00 |
| 09/06/26 4:13:23 AM | 32 | 0.0 | 0.0 | 38 | 41 | 74.0 | 72.0 | 29.894 | 7.41 | 0.0 | 0 | 0.00 | 0.00 | 0.00 | 0.00 |
| 09/06/26 4:14:35 AM | 34 | 2.0 | 3.0 | 38 | 41 | 74.0 | 72.1 | 29.897 | 7.41 | 0.0 | 0 | 0.00 | 0.00 | 0.00 | 0.00 |
| 09/06/26 4:15:45 AM | 29 | 2.0 | 3.0 | 38 | 41 | 73.9 | 72.1 | 29.895 | 7.41 | 0.0 | 0 | 0.00 | 0.00 | 0.00 | 0.00 |
| 09/06/26 4:16:16 AM | 32 | 1.0 | 3.0 | 38 | 41 | 74.0 | 72.1 | 29.895 | 7.41 | 0.0 | 0 | 0.00 | 0.00 | 0.00 | 0.00 |
| 09/06/26 4:17:29 AM | 32 | 1.0 | 3.0 | 38 | 42 | 74.0 | 72.2 | 29.894 | 7.41 | 0.0 | 0 | 0.00 | 0.00 | 0.00 | 0.00 |
| 09/06/26 4:18:20 AM | 28 | 0.0 | 3.0 | 38 | 42 | 74.0 | 72.3 | 29.896 | 7.41 | 0.0 | 0 | 0.00 | 0.00 | 0.00 | 0.00 |
| 09/06/26 4:19:33 AM | 31 | 0.0 | 3.0 | 38 | 42 | 74.0 | 72.3 | 29.894 | 7.41 | 0.0 | 0 | 0.00 | 0.00 | 0.00 | 0.00 |
| 09/06/26 4:20:22 AM | 32 | 0.0 | 3.0 | 38 | 42 | 74.0 | 72.3 | 29.893 | 7.41 | 0.0 | 0 | 0.00 | 0.00 | 0.00 | 0.00 |
| 09/06/26 4:21:32 AM | 31 | 0.0 | 3.0 | 38 | 42 | 74.0 | 72.3 | 29.891 | 7.41 | 0.0 | 0 | 0.00 | 0.00 | 0.00 | 0.00 |
| 09/06/26 4:22:23 AM | 32 | 0.0 | 3.0 | 38 | 42 | 74.0 | 72.3 | 29.891 | 7.41 | 0.0 | 0 | 0.00 | 0.00 | 0.00 | 0.00 |
| 09/06/26 4:23:36 AM | 28 | 0.0 | 3.0 | 38 | 42 | 74.0 | 72.4 | 29.890 | 7.41 | 0.0 | 0 | 0.00 | 0.00 | 0.00 | 0.00 |
| 09/06/26 4:24:28 AM | 32 | 0.0 | 3.0 | 38 | 42 | 74.0 | 72.4 | 29.892 | 7.41 | 0.0 | 0 | 0.00 | 0.00 | 0.00 | 0.00 |
| 09/06/26 4:25:20 AM | 32 | 0.0 | 3.0 | 38 | 42 | 74.0 | 72.4 | 29.894 | 7.41 | 0.0 | 0 | 0.00 | 0.00 | 0.00 | 0.00 |
| 09/06/26 4:26:26 AM | 32 | 0.0 | 3.0 | 38 | 42 | 74.0 | 72.4 | 29.893 | 7.41 | 0.0 | 0 | 0.00 | 0.00 | 0.00 | 0.00 |
| 09/06/26 4:27:18 AM | 32 | 0.0 | 3.0 | 38 | 42 | 74.0 | 72.4 | 29.894 | 7.41 | 0.0 | 0 | 0.00 | 0.00 | 0.00 | 0.00 |
| 09/06/26 4:28:31 AM | 32 | 0.0 | 3.0 | 38 | 42 | 74.0 | 72.4 | 29.894 | 7.41 | 0.0 | 0 | 0.00 | 0.00 | 0.00 | 0.00 |
| 09/06/26 4:29:23 AM | 32 | 0.0 | 3.0 | 38 | 42 | 74.0 | 72.4 | 29.895 | 7.41 | 0.0 | 0 | 0.00 | 0.00 | 0.00 | 0.00 |
| 09/06/26 4:30:35 AM | 28 | 0.0 | 3.0 | 38 | 42 | 74.0 | 72.4 | 29.894 | 7.41 | 0.0 | 0 | 0.00 | 0.00 | 0.00 | 0.00 |
| 09/06/26 4:31:21 AM | 31 | 0.0 | 3.0 | 38 | 44 | 74.0 | 72.4 | 29.896 | 7.41 | 0.0 | 0 | 0.00 | 0.00 | 0.00 | 0.00 |
| 09/06/26 4:32:34 AM | 32 | 0.0 | 3.0 | 38 | 44 | 74.0 | 72.4 | 29.897 | 7.41 | 0.0 | 0 | 0.00 | 0.00 | 0.00 | 0.00 |
| 09/06/26 4:33:26 AM | 30 | 0.0 | 3.0 | 38 | 44 | 74.0 | 72.4 | 29.898 | 7.41 | 0.0 | 0 | 0.00 | 0.00 | 0.00 | 0.00 |
| 09/06/26 4:34:21 AM | 32 | 0.0 | 3.0 | 38 | 44 | 74.0 | 72.4 | 29.899 | 7.41 | 0.0 | 0 | 0.00 | 0.00 | 0.00 | 0.00 |
| 09/06/26 4:35:33 AM | 31 | 0.0 | 3.0 | 38 | 44 | 74.0 | 72.4 | 29.902 | 7.41 | 0.0 | 0 | 0.00 | 0.00 | 0.00 | 0.00 |
| 09/06/26 4:36:25 AM | 31 | 0.0 | 3.0 | 38 | 43 | 74.0 | 72.4 | 29.901 | 7.41 | 0.0 | 0 | 0.00 | 0.00 | 0.00 | 0.00 |
| 09/06/26 4:37:35 AM | 29 | 0.0 | 3.0 | 38 | 42 | 74.0 | 72.4 | 29.901 | 7.41 | 0.0 | 0 | 0.00 | 0.00 | 0.00 | 0.00 |
| 09/06/26 4:38:24 AM | 26 | 0.0 | 3.0 | 38 | 42 | 74.0 | 72.4 | 29.900 | 7.41 | 0.0 | 0 | 0.00 | 0.00 | 0.00 | 0.00 |
| 09/06/26 4:39:36 AM | 28 | 0.0 | 3.0 | 38 | 42 | 74.0 | 72.4 | 29.903 | 7.41 | 0.0 | 0 | 0.00 | 0.00 | 0.00 | 0.00 |
| 09/06/26 4:40:28 AM | 34 | 0.0 | 3.0 | 38 | 42 | 73.9 | 72.4 | 29.904 | 7.41 | 0.0 | 0 | 0.00 | 0.00 | 0.00 | 0.00 |
| 09/06/26 4:41:20 AM | 30 | 0.0 | 3.0 | 38 | 42 | 74.0 | 72.4 | 29.906 | 7.41 | 0.0 | 0 | 0.00 | 0.00 | 0.00 | 0.00 |
| 09/06/26 4:42:27 AM | 32 | 0.0 | 3.0 | 38 | 41 | 74.0 | 72.4 | 29.905 | 7.41 | 0.0 | 0 | 0.00 | 0.00 | 0.00 | 0.00 |
| 09/06/26 4:43:18 AM | 31 | 0.0 | 3.0 | 38 | 41 | 74.0 | 72.4 | 29.906 | 7.41 | 0.0 | 0 | 0.00 | 0.00 | 0.00 | 0.00 |
| 09/06/26 4:44:34 AM | 32 | 0.0 | 3.0 | 38 | 42 | 74.0 | 72.4 | 29.905 | 7.41 | 0.0 | 0 | 0.00 | 0.00 | 0.00 | 0.00 |
| 09/06/26 4:45:26 AM | 31 | 0.0 | 3.0 | 38 | 42 | 74.0 | 72.4 | 29.904 | 7.41 | 0.0 | 0 | 0.00 | 0.00 | 0.00 | 0.00 |
| 09/06/26 4:46:18 AM | 32 | 0.0 | 3.0 | 38 | 42 | 74.0 | 72.5 | 29.903 | 7.41 | 0.0 | 0 | 0.00 | 0.00 | 0.00 | 0.00 |
| 09/06/26 4:47:25 AM | 23 | 0.0 | 3.0 | 38 | 42 | 74.0 | 72.5 | 29.905 | 7.41 | 0.0 | 0 | 0.00 | 0.00 | 0.00 | 0.00 |
| 09/06/26 4:48:19 AM | 32 | 0.0 | 3.0 | 38 | 42 | 74.0 | 72.5 | 29.904 | 7.41 | 0.0 | 0 | 0.00 | 0.00 | 0.00 | 0.00 |
| 09/06/26 4:49:29 AM | 30 | 3.0 | 3.0 | 38 | 42 | 74.0 | 72.6 | 29.904 | 7.41 | 0.0 | 0 | 0.00 | 0.00 | 0.00 | 0.00 |
| 09/06/26 4:50:21 AM | 28 | 2.0 | 3.0 | 38 | 42 | 74.0 | 72.6 | 29.903 | 7.41 | 0.0 | 0 | 0.00 | 0.00 | 0.00 | 0.00 |
| 09/06/26 4:51:34 AM | 26 | 3.0 | 4.0 | 38 | 42 | 74.0 | 72.7 | 29.902 | 7.41 | 0.0 | 0 | 0.00 | 0.00 | 0.00 | 0.00 |
| 09/06/26 4:52:25 AM | 34 | 2.0 | 4.0 | 38 | 42 | 74.0 | 72.7 | 29.901 | 7.41 | 0.0 | 0 | 0.00 | 0.00 | 0.00 | 0.00 |
| 09/06/26 4:53:32 AM | 28 | 2.0 | 4.0 | 39 | 42 | 74.0 | 72.8 | 29.900 | 7.41 | 0.0 | 0 | 0.00 | 0.00 | 0.00 | 0.00 |
| 09/06/26 4:54:24 AM | 25 | 3.0 | 4.0 | 39 | 42 | 73.9 | 72.8 | 29.903 | 7.41 | 0.0 | 0 | 0.00 | 0.00 | 0.00 | 0.00 |
| 09/06/26 4:55:37 AM | 32 | 2.0 | 4.0 | 39 | 41 | 73.9 | 72.8 | 29.902 | 7.41 | 0.0 | 0 | 0.00 | 0.00 | 0.00 | 0.00 |
| 09/06/26 4:56:29 AM | 31 | 2.0 | 4.0 | 39 | 41 | 74.0 | 72.9 | 29.903 | 7.41 | 0.0 | 0 | 0.00 | 0.00 | 0.00 | 0.00 |
| 09/06/26 4:57:20 AM | 30 | 3.0 | 4.0 | 39 | 41 | 73.9 | 72.9 | 29.904 | 7.41 | 0.0 | 0 | 0.00 | 0.00 | 0.00 | 0.00 |
| 09/06/26 4:58:27 AM | 31 | 3.0 | 4.0 | 39 | 41 | 73.9 | 73.0 | 29.904 | 7.41 | 0.0 | 0 | 0.00 | 0.00 | 0.00 | 0.00 |
| 09/06/26 4:59:22 AM | 24 | 2.0 | 4.0 | 39 | 41 | 73.9 | 73.0 | 29.904 | 7.41 | 0.0 | 0 | 0.00 | 0.00 | 0.00 | 0.00 |
| 09/06/26 5:00:56 AM | 32 | 2.0 | 4.0 | 39 | 41 | 73.9 | 73.1 | 29.903 | 7.41 | 0.0 | 0 | 0.00 | 0.00 | 0.00 | 0.00 |
| 09/06/26 5:01:26 AM | 28 | 1.0 | 4.0 | 39 | 41 | 73.9 | 73.1 | 29.903 | 7.41 | 0.0 | 0 | 0.00 | 0.00 | 0.00 | 0.00 |
| 09/06/26 5:02:18 AM | 28 | 0.0 | 4.0 | 39 | 41 | 73.9 | 73.1 | 29.901 | 7.41 | 0.0 | 0 | 0.00 | 0.00 | 0.00 | 0.00 |
| 09/06/26 5:03:31 AM | 30 | 0.0 | 4.0 | 39 | 41 | 73.9 | 73.2 | 29.899 | 7.41 | 0.0 | 0 | 0.00 | 0.00 | 0.00 | 0.00 |
| 09/06/26 5:04:17 AM | 31 | 0.0 | 4.0 | 39 | 41 | 73.9 | 73.2 | 29.897 | 7.41 | 0.0 | 0 | 0.00 | 0.00 | 0.00 | 0.00 |
| 09/06/26 5:05:30 AM | 28 | 0.0 | 4.0 | 39 | 41 | 73.9 | 73.2 | 29.895 | 7.41 | 0.0 | 0 | 0.00 | 0.00 | 0.00 | 0.00 |
| 09/06/26 5:06:24 AM | 32 | 0.0 | 4.0 | 39 | 41 | 73.9 | 73.2 | 29.896 | 7.41 | 0.0 | 0 | 0.00 | 0.00 | 0.00 | 0.00 |
| 09/06/26 5:07:34 AM | 32 | 0.0 | 4.0 | 39 | 41 | 74.0 | 73.3 | 29.894 | 7.41 | 0.0 | 0 | 0.00 | 0.00 | 0.00 | 0.00 |
| 09/06/26 5:08:26 AM | 32 | 0.0 | 4.0 | 39 | 41 | 73.9 | 73.3 | 29.891 | 7.41 | 0.0 | 0 | 0.00 | 0.00 | 0.00 | 0.00 |
| 09/06/26 5:09:33 AM | 32 | 0.0 | 4.0 | 39 | 41 | 73.9 | 73.3 | 29.893 | 7.41 | 0.0 | 0 | 0.00 | 0.00 | 0.00 | 0.00 |
| 09/06/26 5:10:27 AM | 31 | 0.0 | 4.0 | 39 | 41 | 73.9 | 73.3 | 29.895 | 7.41 | 0.0 | 0 | 0.00 | 0.00 | 0.00 | 0.00 |
| 09/06/26 5:11:19 AM | 32 | 0.0 | 4.0 | 39 | 41 | 74.0 | 73.3 | 29.892 | 7.41 | 0.0 | 0 | 0.00 | 0.00 | 0.00 | 0.00 |
| 09/06/26 5:12:32 AM | 32 | 0.0 | 4.0 | 39 | 41 | 73.9 | 73.3 | 29.892 | 7.41 | 0.0 | 0 | 0.00 | 0.00 | 0.00 | 0.00 |
| 09/06/26 5:13:24 AM | 29 | 0.0 | 4.0 | 39 | 41 | 73.9 | 73.3 | 29.894 | 7.41 | 0.0 | 0 | 0.00 | 0.00 | 0.00 | 0.00 |
| 09/06/26 5:14:30 AM | 30 | 0.0 | 4.0 | 39 | 41 | 74.0 | 73.3 | 29.894 | 7.41 | 0.0 | 0 | 0.00 | 0.00 | 0.00 | 0.00 |
| 09/06/26 5:15:25 AM | 30 | 0.0 | 4.0 | 39 | 41 | 73.9 | 73.3 | 29.890 | 7.41 | 0.0 | 0 | 0.00 | 0.00 | 0.00 | 0.00 |
| 09/06/26 5:16:35 AM | 28 | 0.0 | 4.0 | 39 | 41 | 74.0 | 73.4 | 29.892 | 7.41 | 0.0 | 0 | 0.00 | 0.00 | 0.00 | 0.00 |
| 09/06/26 5:17:27 AM | 29 | 0.0 | 4.0 | 39 | 41 | 73.9 | 73.3 | 29.890 | 7.41 | 0.0 | 0 | 0.00 | 0.00 | 0.00 | 0.00 |
| 09/06/26 5:18:18 AM | 32 | 0.0 | 4.0 | 39 | 41 | 74.0 | 73.3 | 29.888 | 7.41 | 0.0 | 0 | 0.00 | 0.00 | 0.00 | 0.00 |
| 09/06/26 5:19:31 AM | 32 | 0.0 | 4.0 | 39 | 41 | 73.9 | 73.3 | 29.888 | 7.41 | 0.0 | 0 | 0.00 | 0.00 | 0.00 | 0.00 |
| 09/06/26 5:20:17 AM | 32 | 0.0 | 4.0 | 39 | 41 | 73.9 | 73.3 | 29.890 | 7.41 | 0.0 | 0 | 0.00 | 0.00 | 0.00 | 0.00 |
University Police wind advisory reference
For campus closure information please call the campus Emergency Hotline at (909) 537-5999
© All rights reserved. Unauthorized duplication or distribution is prohibited
Never base important decisions on this or any weather information obtained from the Internet
California State University, San Bernardino
5500 University Parkway, San Bernardino, CA. 92407
Phone: (909) 537-5108, Email: Weather Webmaster
Last Updated: